MMZ352 GGOV-LPPT

Flight info

Callsign MMZ352
Flight time 3h 49m
Altitude 35000
Route ENBOT UR620 ARDAR UR975 ECHED/N0475F370 UR975 DIDAN/N0478F360 UR975 ADM UR724 ESS DCT TAKAV DCT VATZI
Aircraft B763/H-SDE3FGHIM3RWXY/LB1

Departure

Time 2026-04-24 15:20
Airport Osvaldo Vieira International Airport (GGOV)

Arrival

Time 2026-04-24 19:09
Airport Lisbon Humberto Delgado Airport (LPPT)
Time Latitude Longitude Altitude Speed Heading
2026-04-24 14:54 11.88975 -15.65260 117 ft 0 kts 243°
2026-04-24 15:13 11.88974 -15.65260 117 ft 0 kts 243°
2026-04-24 15:13 11.88972 -15.65263 117 ft 1 kts 226°
2026-04-24 15:13 11.88940 -15.65277 118 ft 7 kts 206°
2026-04-24 15:14 11.88925 -15.65323 119 ft 6 kts 273°
2026-04-24 15:14 11.88942 -15.65381 120 ft 15 kts 287°
2026-04-24 15:14 11.88875 -15.65462 123 ft 15 kts 226°
2026-04-24 15:14 11.88894 -15.65543 124 ft 12 kts 329°
2026-04-24 15:15 11.88996 -15.65533 122 ft 19 kts 19°
2026-04-24 15:15 11.89161 -15.65477 117 ft 30 kts 18°
2026-04-24 15:15 11.89390 -15.65402 109 ft 36 kts 19°
2026-04-24 15:15 11.89636 -15.65317 103 ft 39 kts 18°
2026-04-24 15:16 11.89898 -15.65227 102 ft 38 kts 19°
2026-04-24 15:16 11.90142 -15.65142 101 ft 36 kts 18°
2026-04-24 15:16 11.90378 -15.65060 101 ft 34 kts 19°
2026-04-24 15:16 11.90597 -15.64986 101 ft 32 kts 18°
2026-04-24 15:17 11.90764 -15.64919 99 ft 13 kts 47°
2026-04-24 15:17 11.90828 -15.64882 99 ft 6 kts 334°
2026-04-24 15:17 11.90826 -15.64907 98 ft 3 kts 211°
2026-04-24 15:17 11.90819 -15.64910 99 ft 0 kts 199°
2026-04-24 15:18 11.90818 -15.64910 99 ft 0 kts 199°
2026-04-24 15:19 11.90687 -15.64956 100 ft 41 kts 198°
2026-04-24 15:19 11.90267 -15.65100 100 ft 84 kts 198°
2026-04-24 15:19 11.89582 -15.65335 104 ft 122 kts 199°
2026-04-24 15:19 11.88653 -15.65654 131 ft 162 kts 198°
2026-04-24 15:20 11.87442 -15.66063 443 ft 197 kts 200°
2026-04-24 15:20 11.86200 -15.66671 1319 ft 199 kts 222°
2026-04-24 15:20 11.85440 -15.67869 1453 ft 218 kts 265°
2026-04-24 15:20 11.85776 -15.69413 1514 ft 236 kts 307°
2026-04-24 15:21 11.87039 -15.70562 1702 ft 254 kts 336°
2026-04-24 15:21 11.88774 -15.70937 2238 ft 259 kts
2026-04-24 15:21 11.90463 -15.70379 2907 ft 261 kts 31°
2026-04-24 15:21 11.92026 -15.69440 3613 ft 263 kts 28°
2026-04-24 15:22 11.93660 -15.68606 4416 ft 261 kts 26°
2026-04-24 15:22 11.95294 -15.67818 5108 ft 266 kts 25°
2026-04-24 15:22 11.96977 -15.67040 5922 ft 265 kts 24°
2026-04-24 15:23 12.00435 -15.65488 7380 ft 273 kts 25°
2026-04-24 15:23 12.03960 -15.63929 8746 ft 284 kts 25°
2026-04-24 15:23 12.05797 -15.63121 9526 ft 285 kts 25°
2026-04-24 15:24 12.11794 -15.60482 10287 ft 354 kts 25°
2026-04-24 15:25 12.16566 -15.58388 11213 ft 381 kts 24°
2026-04-24 15:25 12.21510 -15.56217 12689 ft 389 kts 24°
2026-04-24 15:26 12.29121 -15.52870 14801 ft 401 kts 23°
2026-04-24 15:27 12.36970 -15.49417 16701 ft 414 kts 22°
2026-04-24 15:27 12.45086 -15.45846 18326 ft 430 kts 22°
2026-04-24 15:28 12.56302 -15.40904 20277 ft 449 kts 22°
2026-04-24 15:29 12.62102 -15.38347 21150 ft 457 kts 22°
2026-04-24 15:30 12.70992 -15.34425 22380 ft 468 kts 22°
2026-04-24 15:31 12.83055 -15.29098 24230 ft 476 kts 21°
2026-04-24 15:32 12.95288 -15.23690 25833 ft 480 kts 21°
2026-04-24 15:33 13.07658 -15.18216 27191 ft 484 kts 20°
2026-04-24 15:33 13.16822 -15.14155 28694 ft 475 kts 19°
2026-04-24 15:34 13.22954 -15.11703 29587 ft 469 kts 15°
2026-04-24 15:35 13.32161 -15.08364 30866 ft 466 kts 16°
2026-04-24 15:35 13.38262 -15.06141 31682 ft 463 kts 15°
2026-04-24 15:35 13.41324 -15.05025 32070 ft 462 kts 16°
2026-04-24 15:36 13.44377 -15.03911 32454 ft 462 kts 16°
2026-04-24 15:36 13.50420 -15.01706 33196 ft 462 kts 16°
2026-04-24 15:36 13.53466 -15.00594 33600 ft 461 kts 15°
2026-04-24 15:37 13.56475 -14.99495 33980 ft 461 kts 16°
2026-04-24 15:37 13.59506 -14.98387 34320 ft 461 kts 15°
2026-04-24 15:37 13.62530 -14.97282 34690 ft 460 kts 16°
2026-04-24 15:37 13.65574 -14.96169 34948 ft 461 kts 15°
2026-04-24 15:38 13.68612 -14.95059 35256 ft 461 kts 16°
2026-04-24 15:38 13.71632 -14.93954 35521 ft 461 kts 16°
2026-04-24 15:38 13.74641 -14.92853 35767 ft 462 kts 16°
2026-04-24 15:38 13.77695 -14.91736 36014 ft 462 kts 16°
2026-04-24 15:39 13.80726 -14.90626 36254 ft 462 kts 16°
2026-04-24 15:39 13.83741 -14.89522 36470 ft 463 kts 16°
2026-04-24 15:39 13.86808 -14.88399 36657 ft 463 kts 16°
2026-04-24 15:39 13.89882 -14.87272 36928 ft 462 kts 16°
2026-04-24 15:40 13.92906 -14.86164 37047 ft 464 kts 16°
2026-04-24 15:40 13.95976 -14.85039 37260 ft 464 kts 16°
2026-04-24 15:40 13.99039 -14.83915 37400 ft 465 kts 16°
2026-04-24 15:40 14.02089 -14.82797 37547 ft 465 kts 15°
2026-04-24 15:41 14.05152 -14.81738 37663 ft 465 kts 11°
2026-04-24 15:41 14.08305 -14.80912 37775 ft 461 kts 10°
2026-04-24 15:41 14.14529 -14.79277 37771 ft 460 kts 10°
2026-04-24 15:42 14.20746 -14.77638 37765 ft 460 kts 10°
2026-04-24 15:42 14.26977 -14.75993 37763 ft 461 kts 10°
2026-04-24 15:43 14.33222 -14.74343 37771 ft 462 kts 10°
2026-04-24 15:43 14.39456 -14.72695 37761 ft 462 kts 11°
2026-04-24 15:44 14.45696 -14.71044 37761 ft 462 kts 10°
2026-04-24 15:44 14.51965 -14.69385 37768 ft 464 kts 10°
2026-04-24 15:45 14.58215 -14.67730 37773 ft 463 kts 10°
2026-04-24 15:45 14.64487 -14.66068 37766 ft 463 kts 10°
2026-04-24 15:46 14.70757 -14.64405 37766 ft 463 kts 10°
2026-04-24 15:46 14.76990 -14.62752 37764 ft 464 kts 10°
2026-04-24 15:47 14.83305 -14.61077 37764 ft 465 kts 10°
2026-04-24 15:47 14.89603 -14.59406 37767 ft 466 kts 10°
2026-04-24 15:48 14.95882 -14.57739 37769 ft 465 kts 10°
2026-04-24 15:48 15.02153 -14.56072 37765 ft 465 kts 10°
2026-04-24 15:49 15.08437 -14.54402 37765 ft 466 kts 10°
2026-04-24 15:49 15.14770 -14.52717 37771 ft 466 kts 10°
2026-04-24 15:50 15.21061 -14.51042 37760 ft 465 kts
2026-04-24 15:50 15.27376 -14.49360 37764 ft 465 kts 10°
2026-04-24 15:51 15.33649 -14.47689 37777 ft 466 kts 10°
2026-04-24 15:51 15.39969 -14.46003 37780 ft 467 kts
2026-04-24 15:52 15.46278 -14.44319 37782 ft 466 kts
2026-04-24 15:52 15.52545 -14.42647 37782 ft 466 kts
2026-04-24 15:53 15.58877 -14.40954 37779 ft 466 kts
2026-04-24 15:53 15.65193 -14.39266 37784 ft 467 kts
2026-04-24 15:54 15.71514 -14.37575 37774 ft 467 kts
2026-04-24 15:54 15.77842 -14.35881 37773 ft 467 kts
2026-04-24 15:55 15.84154 -14.34190 37757 ft 468 kts
2026-04-24 15:55 15.90477 -14.32495 37764 ft 467 kts
2026-04-24 15:56 15.96791 -14.30802 37764 ft 467 kts
2026-04-24 15:56 16.03090 -14.29111 37775 ft 467 kts
2026-04-24 15:57 16.09374 -14.27424 37772 ft 467 kts
2026-04-24 15:57 16.15714 -14.25720 37775 ft 467 kts
2026-04-24 15:58 16.22011 -14.24026 37766 ft 467 kts
2026-04-24 15:58 16.28298 -14.22335 37766 ft 467 kts
2026-04-24 15:59 16.34597 -14.20638 37770 ft 467 kts
2026-04-24 15:59 16.40915 -14.18936 37775 ft 467 kts
2026-04-24 16:00 16.47203 -14.17240 37761 ft 467 kts
2026-04-24 16:00 16.53521 -14.15536 37767 ft 468 kts
2026-04-24 16:01 16.59842 -14.13829 37771 ft 467 kts
2026-04-24 16:01 16.66146 -14.12126 37768 ft 468 kts
2026-04-24 16:02 16.72469 -14.10417 37771 ft 469 kts
2026-04-24 16:02 16.78789 -14.08707 37769 ft 468 kts
2026-04-24 16:03 16.85102 -14.06998 37773 ft 468 kts
2026-04-24 16:03 16.91413 -14.05288 37771 ft 468 kts
2026-04-24 16:04 16.97703 -14.03584 37774 ft 468 kts
2026-04-24 16:04 17.04035 -14.01866 37769 ft 468 kts
2026-04-24 16:05 17.13495 -13.99298 37775 ft 468 kts
2026-04-24 16:06 17.22957 -13.96727 37786 ft 467 kts
2026-04-24 16:07 17.32423 -13.94152 37793 ft 468 kts
2026-04-24 16:07 17.41849 -13.91585 37789 ft 467 kts
2026-04-24 16:08 17.51299 -13.89005 37787 ft 466 kts
2026-04-24 16:09 17.60762 -13.86420 37783 ft 469 kts
2026-04-24 16:09 17.67052 -13.84698 37776 ft 466 kts
2026-04-24 16:11 17.82793 -13.80387 37781 ft 469 kts
2026-04-24 16:11 17.89107 -13.78662 37782 ft 468 kts
2026-04-24 16:12 17.98501 -13.76109 37783 ft 464 kts
2026-04-24 16:13 18.07932 -13.73545 37791 ft 465 kts
2026-04-24 16:14 18.20516 -13.70118 37799 ft 466 kts
2026-04-24 16:14 18.29905 -13.67557 37801 ft 465 kts
2026-04-24 16:15 18.39317 -13.64988 37799 ft 466 kts
2026-04-24 16:16 18.48765 -13.62406 37796 ft 466 kts
2026-04-24 16:17 18.64445 -13.58114 37801 ft 465 kts
2026-04-24 16:18 18.76994 -13.54673 37799 ft 465 kts
2026-04-24 16:19 18.86412 -13.52088 37799 ft 465 kts
2026-04-24 16:20 18.95785 -13.49510 37805 ft 463 kts
2026-04-24 16:20 19.05191 -13.46923 37813 ft 465 kts
2026-04-24 16:21 19.14553 -13.44343 37823 ft 464 kts
2026-04-24 16:22 19.20852 -13.42606 37824 ft 466 kts
2026-04-24 16:22 19.30281 -13.40003 37824 ft 468 kts
2026-04-24 16:23 19.36554 -13.38269 37835 ft 467 kts
2026-04-24 16:24 19.46028 -13.35648 37834 ft 466 kts
2026-04-24 16:24 19.52294 -13.33914 37829 ft 467 kts
2026-04-24 16:25 19.58613 -13.32163 37841 ft 470 kts
2026-04-24 16:25 19.64947 -13.30406 37845 ft 469 kts
2026-04-24 16:26 19.74395 -13.27783 37861 ft 468 kts
2026-04-24 16:27 19.83839 -13.25157 37861 ft 467 kts
2026-04-24 16:27 19.90144 -13.23403 37846 ft 467 kts
2026-04-24 16:28 19.96443 -13.21650 37841 ft 468 kts
2026-04-24 16:28 20.05903 -13.19013 37840 ft 468 kts
2026-04-24 16:29 20.12207 -13.17253 37846 ft 469 kts
2026-04-24 16:30 20.24846 -13.13720 37857 ft 465 kts
2026-04-24 16:30 20.31083 -13.11978 37873 ft 468 kts
2026-04-24 16:31 20.37395 -13.10210 37887 ft 468 kts
2026-04-24 16:31 20.43706 -13.08442 37888 ft 469 kts
2026-04-24 16:32 20.50069 -13.06660 37903 ft 472 kts
2026-04-24 16:32 20.56386 -13.04989 37899 ft 468 kts
2026-04-24 16:33 20.62731 -13.03315 37906 ft 469 kts
2026-04-24 16:33 20.69080 -13.01637 37901 ft 468 kts
2026-04-24 16:34 20.75409 -12.99963 37899 ft 467 kts
2026-04-24 16:34 20.81728 -12.98291 37902 ft 469 kts
2026-04-24 16:35 20.88063 -12.96613 37920 ft 470 kts
2026-04-24 16:35 20.94422 -12.94926 37927 ft 470 kts
2026-04-24 16:36 21.00787 -12.93237 37935 ft 471 kts
2026-04-24 16:36 21.07144 -12.91547 37936 ft 469 kts
2026-04-24 16:37 21.13457 -12.89870 37951 ft 469 kts
2026-04-24 16:37 21.19827 -12.88174 37954 ft 469 kts
2026-04-24 16:38 21.26179 -12.86482 37946 ft 469 kts
2026-04-24 16:38 21.32528 -12.84790 37939 ft 470 kts
2026-04-24 16:39 21.38888 -12.83092 37930 ft 469 kts
2026-04-24 16:39 21.45188 -12.81411 37925 ft 469 kts
2026-04-24 16:40 21.51536 -12.79714 37924 ft 470 kts
2026-04-24 16:40 21.57937 -12.78001 37929 ft 471 kts
2026-04-24 16:41 21.64256 -12.76309 37931 ft 470 kts
2026-04-24 16:41 21.70630 -12.74600 37933 ft 470 kts
2026-04-24 16:42 21.77003 -12.72891 37932 ft 470 kts
2026-04-24 16:42 21.83338 -12.71190 37929 ft 471 kts
2026-04-24 16:43 21.89728 -12.69472 37929 ft 471 kts
2026-04-24 16:43 21.96048 -12.67772 37931 ft 470 kts
2026-04-24 16:44 22.02426 -12.66055 37931 ft 471 kts
2026-04-24 16:44 22.08798 -12.64336 37928 ft 469 kts
2026-04-24 16:45 22.15131 -12.62629 37936 ft 470 kts
2026-04-24 16:45 22.21477 -12.60916 37941 ft 471 kts
2026-04-24 16:46 22.27825 -12.59199 37938 ft 469 kts
2026-04-24 16:46 22.34165 -12.57485 37938 ft 470 kts
2026-04-24 16:47 22.40500 -12.55769 37936 ft 469 kts
2026-04-24 16:47 22.46869 -12.54043 37940 ft 470 kts
2026-04-24 16:48 22.53199 -12.52326 37946 ft 468 kts
2026-04-24 16:48 22.59552 -12.50601 37951 ft 469 kts
2026-04-24 16:49 22.65911 -12.48873 37958 ft 471 kts
2026-04-24 16:49 22.72229 -12.47154 37967 ft 469 kts
2026-04-24 16:50 22.78591 -12.45204 37974 ft 475 kts 10°
2026-04-24 16:50 22.84850 -12.42902 37963 ft 475 kts
2026-04-24 16:51 22.91115 -12.40616 37954 ft 474 kts 10°
2026-04-24 16:51 22.97355 -12.38340 37954 ft 475 kts
2026-04-24 16:52 23.03683 -12.36031 37954 ft 477 kts 10°
2026-04-24 16:52 23.09933 -12.33746 37931 ft 474 kts 10°
2026-04-24 16:53 23.16221 -12.31448 37940 ft 476 kts 10°
2026-04-24 16:53 23.22489 -12.29154 37936 ft 476 kts 10°
2026-04-24 16:54 23.28759 -12.26856 37934 ft 475 kts 10°
2026-04-24 16:54 23.35034 -12.24555 37936 ft 476 kts 10°
2026-04-24 16:55 23.41348 -12.22237 37937 ft 476 kts 10°
2026-04-24 16:55 23.47627 -12.19929 37938 ft 474 kts 10°
2026-04-24 16:56 23.53883 -12.17628 37939 ft 476 kts 10°
2026-04-24 16:56 23.60158 -12.15317 37939 ft 475 kts 10°
2026-04-24 16:57 23.66404 -12.13015 37938 ft 475 kts 10°
2026-04-24 16:57 23.72679 -12.10700 37936 ft 476 kts 10°
2026-04-24 16:58 23.78980 -12.08372 37940 ft 475 kts 10°
2026-04-24 16:58 23.85252 -12.06053 37939 ft 475 kts 10°
2026-04-24 16:59 23.91487 -12.03745 37941 ft 475 kts 10°
2026-04-24 17:00 24.00862 -12.00272 37946 ft 475 kts 10°
2026-04-24 17:00 24.10260 -11.96784 37947 ft 476 kts 10°
2026-04-24 17:01 24.19696 -11.93275 37957 ft 474 kts 11°
2026-04-24 17:02 24.29044 -11.89795 37959 ft 475 kts 10°
2026-04-24 17:02 24.35299 -11.87464 37952 ft 475 kts 11°
2026-04-24 17:03 24.44723 -11.83945 37946 ft 476 kts 11°
2026-04-24 17:04 24.50973 -11.81609 37951 ft 475 kts 10°
2026-04-24 17:04 24.60358 -11.78097 37949 ft 475 kts 11°
2026-04-24 17:05 24.66599 -11.75757 37946 ft 474 kts 11°
2026-04-24 17:06 24.75972 -11.72241 37945 ft 475 kts 11°
2026-04-24 17:06 24.85333 -11.68722 37951 ft 475 kts 10°
2026-04-24 17:07 24.91607 -11.66360 37951 ft 475 kts 11°
2026-04-24 17:08 25.04105 -11.61649 37954 ft 475 kts 11°
2026-04-24 17:08 25.10366 -11.59285 37964 ft 475 kts 11°
2026-04-24 17:09 25.22841 -11.54538 37978 ft 477 kts 12°
2026-04-24 17:10 25.35333 -11.49370 37986 ft 479 kts 12°
2026-04-24 17:12 25.60235 -11.39052 37985 ft 478 kts 12°
2026-04-24 18:54 37.92426 -9.21141 10585 ft 353 kts 359°
2026-04-24 18:55 37.97136 -9.21320 10286 ft 310 kts 359°
2026-04-24 18:55 37.99202 -9.21399 10234 ft 285 kts 359°
2026-04-24 18:55 38.01131 -9.21471 10055 ft 273 kts 359°
2026-04-24 18:56 38.03006 -9.21542 9839 ft 270 kts 359°
2026-04-24 18:56 38.04888 -9.21612 9689 ft 273 kts 359°
2026-04-24 18:56 38.06800 -9.21685 9463 ft 271 kts 359°
2026-04-24 18:56 38.08668 -9.21756 9239 ft 267 kts 359°
2026-04-24 18:57 38.10541 -9.21827 9024 ft 267 kts 359°
2026-04-24 18:57 38.12404 -9.21897 8815 ft 267 kts 359°
2026-04-24 18:57 38.14259 -9.21967 8592 ft 266 kts 359°
2026-04-24 18:57 38.16107 -9.22037 8360 ft 264 kts 359°
2026-04-24 18:58 38.17954 -9.22107 8128 ft 264 kts 359°
2026-04-24 18:58 38.19787 -9.22177 7895 ft 265 kts 359°
2026-04-24 18:58 38.21632 -9.22248 7651 ft 263 kts 359°
2026-04-24 18:58 38.23462 -9.22317 7408 ft 263 kts 359°
2026-04-24 18:59 38.25280 -9.22386 7146 ft 262 kts 359°
2026-04-24 18:59 38.27114 -9.22457 6867 ft 260 kts 359°
2026-04-24 18:59 38.28913 -9.22525 6599 ft 259 kts 359°
2026-04-24 18:59 38.30721 -9.22594 6327 ft 257 kts 359°
2026-04-24 19:00 38.32510 -9.22662 6064 ft 255 kts 359°
2026-04-24 19:00 38.34283 -9.22729 5807 ft 254 kts 359°
2026-04-24 19:00 38.36052 -9.22797 5549 ft 254 kts 359°
2026-04-24 19:00 38.37798 -9.22864 5287 ft 253 kts 359°
2026-04-24 19:01 38.39559 -9.22931 5023 ft 251 kts 359°
2026-04-24 19:01 38.41306 -9.22998 4754 ft 250 kts 359°
2026-04-24 19:01 38.43053 -9.23065 4473 ft 248 kts 359°
2026-04-24 19:01 38.44760 -9.23130 4250 ft 245 kts 359°
2026-04-24 19:02 38.46443 -9.23195 4200 ft 234 kts 359°
2026-04-24 19:02 38.48034 -9.23256 4185 ft 222 kts 359°
2026-04-24 19:02 38.49533 -9.23314 4150 ft 212 kts 359°
2026-04-24 19:02 38.50977 -9.23369 4172 ft 199 kts 359°
2026-04-24 19:03 38.52361 -9.23422 4193 ft 201 kts 359°
2026-04-24 19:03 38.53786 -9.23476 4206 ft 204 kts 359°
2026-04-24 19:03 38.55215 -9.23531 4080 ft 209 kts 359°
2026-04-24 19:03 38.56643 -9.23590 3989 ft 200 kts 357°
2026-04-24 19:04 38.57807 -9.23678 4008 ft 199 kts 356°
2026-04-24 19:04 38.59223 -9.23571 3982 ft 206 kts 16°
2026-04-24 19:04 38.60559 -9.22893 3733 ft 209 kts 22°
2026-04-24 19:04 38.61903 -9.22184 3464 ft 208 kts 21°
2026-04-24 19:05 38.63217 -9.21494 3237 ft 200 kts 21°
2026-04-24 19:05 38.64480 -9.20828 2945 ft 192 kts 20°
2026-04-24 19:05 38.65697 -9.20184 2678 ft 185 kts 20°
2026-04-24 19:05 38.66855 -9.19571 2421 ft 175 kts 20°
2026-04-24 19:06 38.67923 -9.19004 2203 ft 158 kts 19°
2026-04-24 19:06 38.68887 -9.18492 1970 ft 143 kts 18°
2026-04-24 19:06 38.69770 -9.18022 1764 ft 131 kts 18°
2026-04-24 19:06 38.70574 -9.17597 1653 ft 124 kts 17°
2026-04-24 19:07 38.71413 -9.17159 1515 ft 133 kts 18°
2026-04-24 19:07 38.72285 -9.16702 1353 ft 137 kts 18°
2026-04-24 19:07 38.73172 -9.16265 1151 ft 138 kts 17°
2026-04-24 19:07 38.74056 -9.15788 954 ft 140 kts 20°
2026-04-24 19:08 38.74952 -9.15299 756 ft 139 kts 19°
2026-04-24 19:08 38.75841 -9.14821 577 ft 138 kts 20°
2026-04-24 19:08 38.76725 -9.14346 403 ft 138 kts 20°
2026-04-24 19:08 38.77511 -9.13923 383 ft 88 kts 22°
2026-04-24 19:09 38.77961 -9.13684 383 ft 62 kts 22°
2026-04-24 19:09 38.78238 -9.13514 383 ft 35 kts 31°
2026-04-24 19:09 38.78348 -9.13380 383 ft 13 kts 48°
2026-04-24 19:09 38.78368 -9.13283 383 ft 10 kts 116°
2026-04-24 19:10 38.78305 -9.13272 383 ft 10 kts 198°
2026-04-24 19:10 38.78229 -9.13310 383 ft 12 kts 204°
2026-04-24 19:10 38.78141 -9.13359 383 ft 14 kts 204°
2026-04-24 19:10 38.78041 -9.13409 383 ft 16 kts 200°
2026-04-24 19:11 38.77933 -9.13467 383 ft 18 kts 204°
2026-04-24 19:11 38.77850 -9.13513 383 ft 11 kts 204°
2026-04-24 19:11 38.77762 -9.13561 383 ft 17 kts 202°
2026-04-24 19:11 38.77630 -9.13592 383 ft 21 kts 168°
2026-04-24 19:12 38.77483 -9.13551 383 ft 22 kts 168°
2026-04-24 19:12 38.77326 -9.13509 383 ft 23 kts 168°
2026-04-24 19:12 38.77162 -9.13465 383 ft 17 kts 168°
2026-04-24 19:12 38.77090 -9.13500 383 ft 11 kts 238°
2026-04-24 19:13 38.77052 -9.13532 383 ft 9 kts 182°
2026-04-24 19:13 38.76934 -9.13499 383 ft 16 kts 167°
2026-04-24 19:13 38.76847 -9.13484 383 ft 5 kts 205°
2026-04-24 19:13 38.76835 -9.13527 383 ft 6 kts 258°
2026-04-24 19:14 38.76828 -9.13574 383 ft 0 kts 258°
2026-04-24 19:14 38.76827 -9.13575 383 ft 0 kts 258°